Content
SEND FEEDBACK

Daily
Averages
Monthly
Summary
United States of America

ALPINE MEADOWS, CALIFORNIA


Home > North America > United States > California
Elevation: 6230 feet     Latitude: 39 12N     Longitude: 120 14W

WEATHER
 
SELECT A DAY
Number of Records: 282,134;   Date Range: 1/1/95 - 7/22/14
 
SHARE

PRINT THIS DATA

[ ← Previous Day ]
WEATHER ALMANAC - OCTOBER 1, 2013
[ Next Day → ]
[ °C ]   °F
Weather ElementAverageHighLow
Temperature46.2 °F66.2 °F (1:55 pm)32 °F (11:35 pm)
Dewpoint30.2 °F35.6 °F (4:35 am)24.8 °F (1:55 pm)
Humidity58.1 %87 % (12:35 am)21 % (1:55 pm)
Barometer30.10 in30.12 in (8:35 pm)30.04 in (3:50 pm)
Wind Speed5.2 mph17.3 mph (11:45 am)
Wind Gust24.2 mph (1:55 pm)
Weather ElementAverage
Visibility10 mi
Wind DirectionSSE (166.4 °)

Weather ElementTotal
Precipitation---
Heating Degree Days15.9 (Base 65)
Averaged from 50 records on October 1, 2013
WEATHER CONDITIONS BREAKOUT
WIND DIRECTION BREAKOUT
WEATHER BY HOUR - OCTOBER 1, 2013
[ °C ]   °F
Local TimeTemperatureDewpointHumidityBarometerVisibilityWind DirectionWind SpeedGust SpeedPrecipitationEventsConditions
12:35 AM35.6 °F32.0 °F87 %30.11 in10.0 miCalmClear
12:55 AM35.6 °F28.4 °F75 %30.11 in10.0 miEast (80°)3.5 mphClear
1:15 AM35.6 °F28.4 °F75 %30.11 in10.0 miCalmClear
1:35 AM35.6 °F28.4 °F75 %30.11 in10.0 miCalmClear
1:55 AM33.8 °F28.4 °F81 %30.11 in10.0 miSSW (210°)3.5 mphClear
2:15 AM35.6 °F28.4 °F75 %30.10 in10.0 miSW (230°)3.5 mphClear
2:35 AM35.6 °F28.4 °F75 %30.10 in10.0 miWSW (250°)3.5 mphClear
2:55 AM37.4 °F30.2 °F75 %30.09 in10.0 miCalmClear
3:15 AM39.2 °F32.0 °F75 %30.09 in10.0 miWNW (290°)4.6 mphClear
3:35 AM39.2 °F32.0 °F75 %30.09 in10.0 miWest (270°)4.6 mphClear
3:55 AM41.0 °F32.0 °F70 %30.09 in10.0 miWNW (300°)3.5 mphClear
4:15 AM41.0 °F32.0 °F70 %30.09 in10.0 miWest (270°)5.8 mphClear
4:35 AM46.4 °F35.6 °F66 %30.09 in10.0 miWSW (240°)3.5 mphClear
4:55 AM46.4 °F35.6 °F66 %30.09 in10.0 miSouth (190°)6.9 mphClear
5:15 AM42.8 °F33.8 °F70 %30.08 in10.0 miSSW (200°)5.8 mphClear
5:35 AM46.4 °F35.6 °F66 %30.08 in10.0 miSSW (210°)10.4 mphClear
5:55 AM44.6 °F33.8 °F66 %30.08 in10.0 miSW (230°)6.9 mphClear
6:15 AM44.6 °F33.8 °F66 %30.08 in10.0 miSW (230°)4.6 mphClear
6:35 AM44.6 °F35.6 °F71 %30.08 in10.0 miCalmClear
6:55 AM37.4 °F32.0 °F81 %30.09 in10.0 miNorth (360°)3.5 mphScattered Clouds
7:55 AM39.2 °F35.6 °F87 %30.09 in10.0 miSE (130°)3.5 mphScattered Clouds
8:45 AM50.0 °F35.6 °F58 %30.10 in10.0 miCalmScattered Clouds
9:45 AM59.0 °F32.0 °F36 %30.10 in10.0 miSouth (190°)11.5 mph20.7 mphScattered Clouds
10:45 AM62.6 °F28.4 °F27 %30.10 in10.0 miSW (230°)11.5 mph18.4 mphScattered Clouds
11:45 AM62.6 °F26.6 °F26 %30.10 in10.0 miSW (230°)17.3 mph23.0 mphScattered Clouds
12:45 PM64.4 °F26.6 °F24 %30.10 in10.0 miSW (230°)13.8 mph19.6 mphScattered Clouds
1:55 PM66.2 °F24.8 °F21 %30.09 in10.0 miSSW (210°)11.5 mph24.2 mphScattered Clouds
2:45 PM66.2 °F24.8 °F21 %30.09 in10.0 miSouth (190°)12.7 mph23.0 mphScattered Clouds
3:50 PM64.4 °F24.8 °F22 %30.04 in10.0 miWSW (240°)16.1 mph21.9 mphScattered Clouds
4:45 PM62.6 °F24.8 °F24 %30.09 in10.0 miWSW (240°)8.1 mph17.3 mphScattered Clouds
5:45 PM59.0 °F33.8 °F39 %30.09 in10.0 miWest (270°)9.2 mphScattered Clouds
5:55 PM59.0 °F32.0 °F36 %30.09 in10.0 miWest (260°)9.2 mphClear
6:15 PM57.2 °F33.8 °F41 %30.10 in10.0 miWest (270°)8.1 mphClear
6:35 PM55.4 °F33.8 °F44 %30.09 in10.0 miWSW (250°)6.9 mphClear
6:55 PM53.6 °F32.0 °F44 %30.09 in10.0 miCalmClear
7:15 PM53.6 °F32.0 °F44 %30.10 in10.0 miNorth (360°)4.6 mphClear
7:35 PM51.8 °F33.8 °F50 %30.10 in10.0 miNW (310°)8.1 mphClear
7:55 PM53.6 °F35.6 °F51 %30.11 in10.0 miSE (130°)4.6 mphClear
8:15 PM44.6 °F28.4 °F53 %30.11 in10.0 miSSE (160°)3.5 mphClear
8:35 PM44.6 °F26.6 °F49 %30.12 in10.0 miSouth (190°)4.6 mphClear
8:55 PM41.0 °F26.6 °F57 %30.12 in10.0 miCalmClear
9:15 PM42.8 °F28.4 °F57 %30.12 in10.0 miWSW (240°)5.8 mphClear
9:35 PM37.4 °F26.6 °F65 %30.12 in10.0 miSouth (170°)6.9 mphClear
9:55 PM42.8 °F26.6 °F53 %30.12 in10.0 miSE (130°)3.5 mphClear
10:15 PM42.8 °F26.6 °F53 %30.12 in10.0 miCalmClear
10:35 PM39.2 °F26.6 °F61 %30.12 in10.0 miSE (130°)3.5 mphClear
10:55 PM35.6 °F26.6 °F70 %30.12 in10.0 miCalmClear
11:15 PM35.6 °F26.6 °F70 %30.12 in10.0 miCalmClear
11:35 PM32.0 °F26.6 °F80 %30.12 in10.0 miCalmClear
11:55 PM33.8 °F28.4 °F81 %30.11 in10.0 miCalmClear
Hourly data recorded from KTRK, located miles away from Alpine Meadows, California







STORIES FROM OUR PARTNERS